Port Angeles, WA

9:29 PM PDT on April 25, 2017 (GMT -0700)
Fairchild International

Weather History for KCLM - April, 2013

Change the Weather History Date:

Thursday, April 11, 2013

  Actual Average Record
Temperature  
Mean Temperature 46 °F -  
Max Temperature 51 °F 54 °F 70 °F (1956)
Min Temperature 41 °F 38 °F 30 °F (1999)
Degree Days  
Heating Degree Days 19    
Moisture  
Dew Point 36 °F    
Average Humidity 67    
Maximum Humidity 82    
Minimum Humidity 50    
Precipitation  
Precipitation 0.00 in - - ()
Sea Level Pressure  
Sea Level Pressure 30.26 in    
Wind  
Wind Speed 10 mph (WNW)    
Max Wind Speed 20 mph    
Max Gust Speed 28 mph    
Visibility 10 miles    
Events      
Averages and records for this station are not official NWS values.
T = Trace of Precipitation, MM = Missing Value Source: NWS Daily Summary

Daily Weather History Graph

Daily Weather History Graph

Search for Another Location

Airport or City:

Trip Planner

Search our weather history database for the weather conditions in past years. The results will help you decide how hot, cold, wet, or windy it might be!

Date:

Astronomy

Apr. 11, 2013 Rise Set
Actual Time 6:31 AM PDT 7:59 PM PDT
Civil Twilight 5:59 AM PDT 8:31 PM PDT
Nautical Twilight 5:19 AM PDT 9:11 PM PDT
Astronomical Twilight 4:37 AM PDT 9:53 PM PDT
Moon 6:59 AM PDT (4/11) 9:48 PM PDT (4/11)
Length of Visible Light 14h 32m
Length of Day
13h 27m
New Moon, 2% of the Moon is Illuminated
Apr 11
New Moon
Apr 18
First Quarter
Apr 25
Full
May 2
Last Quarter
May 9
New

Hourly Weather History & Observations

Time (PDT) Temp. Windchill Dew Point Humidity Pressure Visibility Wind Dir Wind Speed Gust Speed Precip Events Conditions
12:53 AM 44.1 °F 39.5 °F 37.9 °F 79% 30.26 in 10.0 mi West 8.1 mph - N/A   Clear
1:53 AM 44.1 °F 39.0 °F 37.0 °F 76% 30.25 in 10.0 mi WSW 9.2 mph - N/A   Clear
2:53 AM 45.0 °F 40.1 °F 37.9 °F 76% 30.25 in 10.0 mi West 9.2 mph - N/A   Clear
3:53 AM 43.0 °F 38.2 °F 37.9 °F 82% 30.26 in 10.0 mi WNW 8.1 mph - N/A   Partly Cloudy
4:53 AM 45.0 °F 41.2 °F 39.0 °F 80% 30.26 in 10.0 mi West 6.9 mph - N/A   Overcast
5:53 AM 44.1 °F 39.5 °F 37.9 °F 79% 30.26 in 10.0 mi WSW 8.1 mph - N/A   Mostly Cloudy
6:53 AM 45.0 °F 38.2 °F 34.0 °F 65% 30.27 in 10.0 mi WNW 15.0 mph 24.2 mph N/A   Partly Cloudy
7:53 AM 46.4 °F 41.1 °F 33.8 °F 62% 30.27 in 10.0 mi WNW 11.5 mph - N/A   Partly Cloudy
8:53 AM 46.9 °F - 34.0 °F 61% 30.28 in 10.0 mi NW 13.8 mph 21.9 mph N/A   Clear
9:53 AM 48.2 °F - 35.6 °F 62% 30.28 in 10.0 mi WNW 13.8 mph - N/A   Clear
10:53 AM 50.0 °F - 32.0 °F 50% 30.30 in 10.0 mi NW 16.1 mph 26.5 mph N/A   Clear
11:53 AM 50.0 °F - 35.1 °F 57% 30.30 in 10.0 mi NW 19.6 mph 27.6 mph N/A   Clear
12:53 PM 50.0 °F - 37.0 °F 61% 30.29 in 10.0 mi Variable 6.9 mph - N/A   Clear
1:53 PM 50.0 °F - 37.9 °F 63% 30.28 in 10.0 mi NW 11.5 mph 19.6 mph N/A   Partly Cloudy
2:53 PM 50.0 °F - 37.0 °F 61% 30.28 in 10.0 mi NW 13.8 mph 19.6 mph N/A   Clear
3:53 PM 50.0 °F - 37.0 °F 61% 30.28 in 10.0 mi NW 11.5 mph 21.9 mph N/A   Clear
4:53 PM 50.0 °F - 37.9 °F 63% 30.26 in 10.0 mi WNW 12.7 mph 19.6 mph N/A   Overcast
5:53 PM 48.0 °F - 37.0 °F 66% 30.27 in 10.0 mi NW 12.7 mph 20.7 mph N/A   Overcast
6:53 PM 46.9 °F - 36.0 °F 66% 30.26 in 10.0 mi NW 8.1 mph - N/A   Overcast
7:53 PM 46.0 °F 40.6 °F 35.1 °F 66% 30.25 in 10.0 mi NW 11.5 mph - N/A   Overcast
8:53 PM 45.0 °F 42.6 °F 35.1 °F 68% 30.25 in 10.0 mi West 4.6 mph - N/A   Overcast
9:53 PM 43.0 °F 37.2 °F 34.0 °F 71% 30.23 in 10.0 mi WNW 10.4 mph - N/A   Mostly Cloudy
10:53 PM 42.1 °F 36.6 °F 32.0 °F 67% 30.22 in 10.0 mi West 9.2 mph - N/A   Clear
11:53 PM 41.0 °F 36.4 °F 32.0 °F 70% 30.19 in 10.0 mi West 6.9 mph - N/A   Clear